Back to catalog

STARLINK-35244

AliveCommunicationsVLEO
NORAD 65829·PAYLOAD·🇺🇸 United States

Launched Sep 29, 2025 from Vandenberg Space Force Base

Loading…

Next Passes (next 24 hours)

TLE

FreshSource: CelesTrak SupGP

Epoch: Sep 14, 2026, 15:15 UTC

1 65829C 25221G   26257.63590278  .00008132  00000+0  26161-3 0  2573
2 65829  53.1571 292.2894 0001173  79.2972 159.4877 15.31685595    18

Track STARLINK-35244 in real time with AllMySat

Download on the App Store